カタログに戻る

FLOCK 4BE 22

運用中科学SSO
NORAD 60494·PAYLOAD·🇺🇸 United States

打ち上げ Aug 16, 2024 から Vandenberg Space Force Base

Loading…

次のパス (今後24時間)

TLE

最新Source: CelesTrak SupGP

元期: Sep 14, 2026, 16:45 UTC

1 60494C 24149BH  26257.69804398  .00039829  00000+0  86877-3 0  2578
2 60494  97.3688 342.2621 0002157 311.1680 273.5848 15.44232248    14

AllMySatでFLOCK 4BE 22をリアルタイム追跡

Download on the App Store